x

La Perouse Bank (46206) Wave Buoy

11:00 - Mon 21st Aug 2017 All times are PDT. -7 hours from GMT.

  • Sig Wave height 4.9ft
  • Peak Period 9s
  • Wind
    7mph, 9mph gusts
  • Sea Temp 59°f
  • Aire Temp 57°f
  • Sea Pressure 1021.3mb
  • La Perouse Bank
  • La Perouse Bank

More Historic Weather Station data

Upgrade to MSW Pro to gain access to the past 30 days of data for over 8000 Wavebouys and Weather Stations around the globe.

Join

Comparision Forecast

View Surf forecast
   
lun 08/21 11:00 5ft 9s 7 9 mph 1021.3mb 59f 57f
10:00 4.5ft 10s 7 9 mph 1021.4mb 59f 57f
9:00 4.5ft 10s 7 9 mph 1021.5mb 59f 57f
8:00 4.5ft 8s 9 9 mph 1021.5mb 59f 57f
7:00 4.5ft 8s 7 9 mph 1021.2mb 58f 57f
6:00 4.5ft 9s 7 9 mph 1020.9mb 58f 57f
5:00 4ft 9s 9 11 mph 1020.8mb 58f 57f
4:00 4.5ft 9s 9 11 mph 1020.7mb 58f 58f
3:00 4.5ft 8s 9 11 mph 1020.7mb 58f 58f
2:00 4.5ft 10s 7 9 mph 1020.7mb 59f 57f
1:00 4.5ft 7s 7 9 mph 1020.7mb 59f 58f
12:00 4.5ft 8s 9 11 mph 1020.7mb 59f 58f
dom 08/20 11:00 4.5ft 10s 9 11 mph 1020.8mb 59f 58f
10:00 4.5ft 10s 9 11 mph 1021mb 59f 58f
9:00 4.5ft 10s 9 11 mph 1020.9mb 59f 58f
8:00 4.5ft 10s 11 16 mph 1020.5mb 59f 59f
7:00 4ft 8s 11 13 mph 1020.9mb 59f 60f
6:00 4.5ft 10s 13 18 mph 1021.2mb 59f 60f
5:00 4ft 10s 11 13 mph 1021.2mb 59f 60f
4:00 4ft 10s 11 13 mph 1021.2mb 60f 60f
3:00 3.5ft 11s 7 9 mph 1021.6mb 59f 60f
2:00 4.5ft 10s 13 16 mph 1021.9mb 59f 60f
1:00 4.5ft 9s 11 13 mph 1021.7mb 59f 60f
12:00 4.5ft 10s 11 13 mph 1021.9mb 59f 59f
11:00 4.5ft 10s 9 11 mph 1021.8mb 59f 59f
10:00 5ft 10s 7 9 mph 1021.8mb 59f 59f
9:00 4.5ft 8s 7 9 mph 1021.9mb 58f 59f
8:00 4.5ft 9s 9 11 mph 1022mb 58f 59f
7:00 4.5ft 9s 11 13 mph 1021.8mb 58f 58f
6:00 4.5ft 10s 9 11 mph 1021.8mb 57f 58f
5:00 5ft 9s 11 13 mph 1021.9mb 57f 58f
4:00 5ft 10s 13 18 mph 1022mb 58f 58f
3:00 5ft 9s 16 18 mph 1021.9mb 57f 58f
2:00 5ft 10s 11 13 mph 1022.3mb 58f 58f
1:00 5ft 10s 18 20 mph 1022.2mb 58f 58f
12:00 5ft 8s 13 18 mph 1022.2mb 58f 58f
sáb 08/19 11:00 5.5ft 10s 18 20 mph 1022.5mb 58f 58f
10:00 5.5ft 9s 16 18 mph 1022.6mb 58f 59f
9:00 5.5ft 10s 18 22 mph 1022.6mb 58f 59f
8:00 6ft 10s 18 22 mph 1022.7mb 58f 59f
7:00 6ft 8s 18 22 mph 1022.9mb 58f 59f
6:00 6ft 9s 18 22 mph 1023.1mb 59f 59f
5:00 5.5ft 10s 18 22 mph 1023.4mb 59f 59f
4:00 5ft 9s 18 22 mph 1023.6mb 59f 59f
3:00 5.5ft 8s 16 18 mph 1024mb 59f 59f
2:00 5ft 8s 16 18 mph 1024.1mb 59f 58f
1:00 5.5ft 8s 16 18 mph 1024.1mb 58f 58f
12:00 5.5ft 8s 13 18 mph 1023.9mb 58f 58f
11:00 6.5ft 8s 13 16 mph 1023.7mb 58f 58f
10:00 6ft 8s 13 16 mph 1023.6mb 58f 58f
9:00 6.5ft 8s 13 16 mph 1023.5mb 57f 58f
8:00 7ft 8s 16 20 mph 1023.1mb 57f 58f
7:00 6.5ft 8s 18 25 mph 1022.5mb 57f 58f
6:00 7ft 6s 20 25 mph 1022.2mb 57f 58f
5:00 7ft 6s 18 22 mph 1022.1mb 57f 58f
4:00 7ft 6s 20 25 mph 1022.2mb 57f 58f
3:00 7.5ft 6s 20 25 mph 1022mb 56f 58f
2:00 7ft 10s 20 27 mph 1022mb 56f 58f
1:00 6.5ft 10s 18 22 mph 1022.2mb 56f 58f
12:00 7ft 10s 20 27 mph 1022mb 56f 58f
vie 08/18 11:00 6ft 5s 22 27 mph 1022mb 56f 59f
10:00 6.5ft 6s 22 27 mph 1022mb 57f 59f
9:00 7ft 8s 22 29 mph 1021.9mb 58f 59f
8:00 6.5ft 8s 22 29 mph 1021.7mb 58f 59f
7:00 6ft 9s 22 27 mph 1022mb 59f 59f
6:00 6ft 8s 22 27 mph 1022.1mb 58f 60f
5:00 6ft 10s 20 22 mph 1022.4mb 58f 60f
4:00 5ft 9s 16 20 mph 1022.7mb 58f 60f
3:00 5.5ft 8s 13 16 mph 1022.7mb 58f 60f
2:00 5ft 9s 11 13 mph 1022.6mb 58f 60f
1:00 5.5ft 10s 11 16 mph 1022.6mb 58f 60f
12:00 5.5ft 9s 9 9 mph 1022.2mb 58f 60f
11:00 5.5ft 9s 9 9 mph 1021.9mb 58f 59f
10:00 5.5ft 10s 9 9 mph 1021.5mb 58f 59f
9:00 5.5ft 9s 9 11 mph 1021.4mb 58f 59f
8:00 5ft 10s 9 9 mph 1021.3mb 58f 59f
7:00 5ft 10s 7 9 mph 1021.2mb 58f 59f
6:00 4.5ft 11s 4 7 mph 1021.3mb 58f 59f
5:00 5ft 11s 7 9 mph 1021.4mb 58f 59f
4:00 4.5ft 11s 2 4 mph 1021.6mb 58f 59f
3:00 5ft 11s 2 4 mph 1021.4mb 58f 59f
2:00 5ft 11s 4 7 mph 1021.6mb 58f 59f
1:00 5ft 10s 9 11 mph 1022.1mb 59f 59f
12:00 5ft 12s 7 9 mph 1022.2mb 59f 59f
jue 08/17 11:00 5ft 11s 9 11 mph 1022.2mb 59f 59f
10:00 5ft 11s 7 9 mph 1022.6mb 59f 60f
9:00 6ft 12s 7 9 mph 1022.9mb 59f 60f
8:00 6.5ft 10s 7 9 mph 1022.7mb 59f 60f